Погода в Боре

Погода в Боре : погода сейчас, прогноз погоды и архив. Всё, что Вы хотите узнать о погоде в Боре!

Хотите узнать прогноз погоды в Боре? Тогда Вам сюда: Погода в Боре

Поиск расширенной информации на нашем сайте:

Другие новости

Новости СМИ2

Главная страница сайта

Новости сайта

03.07.2017

Напоминаем, что на нашем специализированном сайте Метеоцентр.Азия вы можете получить высокодетализированные автоматические прогнозы погоды по пунктам России, СНГ и мира в авиационном формате (включающие направление и скорость ветра, видимость, явления погоды, количество и форму облачности, нижнюю и верхнюю границу облачности).

Рекомендуем: http://odeon-mebel.by/ детские кровати в витебске фото и цены.

Погода в Боре - сегодня

Время (UTC), дата Ветер
(°,м/с) 
Видим.   Явления Облачность Т
(°С)
Тd
(°С)
f(%) Тe
(°С)
Pmin
(гПа)
dP
(гПа)
Po
(мм)
O2
(г/м3)
Тmin Tmax R s Состояние
почвы
00 17.08.17 140 (ЮВ) 20000 м    9/9 600 м 
[Sc]
+13.8 +9.5 75 +15  1014.2  -0.4  755  288  +13.2    0.0    влажная 
03 17.08.17 160 (Ю) 20000 м    9/9 600 м 
[Sc]
+16.9 +10.1 64 +19  1013.6  -0.5  755  285  +13         
06 17.08.17 210 (ЮЗ) 20000 м    10/10 600 м кучево-дожд. 
[Cb cap]
+17.8 +10.8 64 +21  1013.3  -0.3  755  284           
09 17.08.17 170 (Ю) 18000 м  слаб. ливневой дождь  10/10 600 м кучево-дожд. 
[Cb cap]
+15.1 +13.1 88 +21  1013.7  0.3  755  286           
12 17.08.17 130 (ЮВ) 20000 м  {ливн. осадки}  10/10 600 м кучево-дожд. 
[Cb cap]
+16.2 +13.2 82 +24  1013  -0.6  755  284    +19.5  0.4     
15 17.08.17 тихо ()   н/о  слаб. ливневой дождь  10/10 600 м кучево-дожд. 
[Cb cap]
+14.4 +13.9 97 +21  1013.2  0.1  755  286           
18 17.08.17 тихо ()   н/о  слаб. ливневой дождь  10/10 600 м кучево-дожд. 
[Cb cap]
+14.1 +14.1 100 +21  1012.6  -0.6  754  286           
21 17.08.17 290 (З) н/о  слаб. ливневой дождь  10/10 600 м кучево-дожд. 
[Cb cap]
+12.7 +14.7 100 +22  1012.8  0.2  754  287           
00 18.08.17 310 (СЗ) 18000 м  слаб. ливневой дождь  10/10 600 м кучево-дожд. 
[Cb cap]
+11.6 +11.2 97 +15  1013.6  0.8  755  290  +11.6      мокрая 
03 18.08.17 310 (СЗ) 18000 м  слаб. ливневой дождь  10/10 600 м кучево-дожд. 
[Cb cap]
+11.5 +11.1 97 +14  1014.2  0.6  755  290  +11.4         
06 18.08.17 310 (СЗ) 20000 м  в посл. час ливневой дождь  10/10 600 м кучево-дожд. 
[Cb cap]
+11.9 +11.1 95 +14  1015.2  756  290           
09 18.08.17 300 (СЗ) 18000 м  слаб. ливневой дождь  10/10 600 м кучево-дожд. 
[Cb cap]
+12.6 +12.4 99 +18  1015.8  0.6  757  289           
12 18.08.17 320 (СЗ) 20000 м  в посл. час ливневой дождь  10/10 600 м кучево-дожд. 
[Cb cap]
+12.7 +12 96 +18  1016  0.2  757  289    +13     
15 18.08.17 310 (СЗ) н/о    9/9 600 м кучево-дожд. 
[Cb cap]
+13 +12.4 96 +18  1016  757  289           
18 18.08.17 тихо ()   н/о  слаб. ливневой дождь  10/10 600 м кучево-дожд. 
[Cb cap]
+12.3 +11.9 97 +16  1015.7  -0.3  757  289           
21 18.08.17 310 (СЗ) н/о  слаб. ливневой дождь  10/10 600 м кучево-дожд. 
[Cb cap]
+10.4 +9.8 96 +13  1015.5  -0.4  756  292           
00 19.08.17 300 (СЗ) 20000 м  {ливн. осадки}  9/9 600 м 
[Sc]
+9.2 +8.8 97 +10  1014.8  -0.7  756  293  +9    0.7    влажная 
03 19.08.17 310 (СЗ) 20000 м  {ливн. осадки}  9/9 600 м кучево-дожд. 
[Cb cap]
+10.5 +9.3 92 +12  1014.6  -0.2  756  292           
06 19.08.17 300 (СЗ) 20000 м  слаб. ливневой дождь  10/10 600 м кучево-дожд. 
[Cb cap]
+11.2 +10.4 95 +14  1013.9  -0.5  755  290           
09 19.08.17 320 (СЗ) 20000 м  {ливн. осадки}  9/9 600 м кучево-дожд. 
[Cb cap]
+13.6 +10.1 79 +15  1014.2  0.3  755  288           
12 19.08.17 тихо ()   20000 м  {ливн. осадки}  8/5 600 м верхняя 
[Sc|Ci sp]
+14.7 +8.4 66 +15  1014.5  0.3  756  288    +14.9  0.9     
15 19.08.17 340 (С) н/о    4/4 600 м 
[Sc]
+9.3 +8.7 96 +10  1015.2  0.5  756  293           
18 19.08.17 тихо ()   н/о    ясно 
+6 +5.8 99 +6  1015.6  0.3  756  297           
21 19.08.17 тихо ()   н/о    5/5 600 м 
[Sc]
+4.9 +4.4 97 +5  1015.7  0.1  756  299           
00 20.08.17 340 (С) 0500 м  туман  8/8 600 м 
[Sc]
+5.4 +5.2 99 +6  1016.2  0.5  757  298  +4.6        влажная 
Время (UTC), дата Ветер
(°,м/с) 
Видим.   Явления Облачность Т
(°С)
Тd
(°С)
f(%) Тe
(°С)
Pmin
(гПа)
dP
(гПа)
Po
(мм)
O2
(г/м3)
Тmin Tmax R s Состояние
почвы

Для получения пояснительной информации подведите курсор к названию столбца.

ПОГОДА в Боре - архив

Всё, что Вы хотите узнать о погоде в Боре - удобно и подробно!

Выберите нужную дату (начиная с 1 января 2015* года) и нажмите кнопку "Найти".
Будут отображены архивные сводки погоды по пункту Бор, начиная с указанной даты.


Отображать данные в формате CSV (для использования в таблицах Excel)


Внимание! Наш архив погоды предназначен исключительно для личного некоммерческого использования в познавательных целях. Если Вам необходимы официальные справки о состоянии погоды (для производственных, юридических, коммерческих и т.п. целей), обращайтесь в органы Росгидромета.

*Примечание: данная дата относится к архиву по метеостанциям СССР (Россия, СНГ, Балтия).
Архив по метеостанциям Зарубежной Европы и Азии (кроме Китая) хранится 10 дней, по другим регионам земного шара (Китай, Африка, Америка, Австралия, Океания) - 1 день.

Бор - район местоположения метеостанции


Название, широта, долгота, высота метеостанции:
Бор 61.6°ш. 90°д. 58 м над ур. моря [Российская Федерация]

Дополнительная информация

В oтличие oт бoльшинства пoгoдных сайтoв мы публикуем пoдрoбную метеoинфoрмацию в детальнoм прoфессиoнальнoм фoрмате.

Характеристики температуры и влажнoсти вoздуха измеряются на высoте 2 м в тени вдали oт зданий и деревьев.
Скoрoсть ветра измеряется на высoте 10 м (на урoвне рoста челoвека скoрoсть ветра ниже в 1.5-2 раза). Если метеoстанция нахoдится в гoрoде или в лесу, тo скoрoсть ветра занижена на 2-4 м/с пo сравнению с oткрытым местoм. Скoрoсть ветра над акватoриями крупных рек и oзёр, а также на вершинах хoлмoв на 2-5 м/с выше, чем в oбычных услoвиях.
Атмoсфернoе давление в разных тoчках местнoсти мoжет значительнo oтличаться oт давления на метеoстанции, в зависимoсти oт услoвий рельефа (при пoдъёме на 10 м давление пoнижается примернo на 1 мм рт.ст.).